Wahpeton, MN

2:14 AM CST on December 08, 2019 (GMT -0600)
Stern

Weather History for KBWP - October, 2019

Change the Weather History Date:

Wednesday, October 30, 2019

  Actual Average (KFFM) Record (KFFM)
Temperature  
Mean Temperature 26 °F -  
Max Temperature 30 °F 49 °F 76 °F (1950)
Min Temperature 21 °F 31 °F 10 °F (1991)
Degree Days  
Heating Degree Days 40    
Moisture  
Dew Point 15 °F    
Average Humidity 62    
Maximum Humidity 86    
Minimum Humidity 51    
Precipitation  
Precipitation 0.00 in - - ()
Sea Level Pressure  
Sea Level Pressure 30.29 in    
Wind  
Wind Speed 9 mph ()    
Max Wind Speed 15 mph    
Max Gust Speed 20 mph    
Visibility 10.0 miles    
Events      
Averages and records for this station are not official NWS values.
T = Trace of Precipitation, MM = Missing Value Source: Averaged Metar Reports

Daily Weather History Graph

Daily Weather History Graph

Search for Another Location

Airport or City:

Astronomy

Oct. 30, 2019 Rise Set
Actual Time 8:04 AM CDT 6:15 PM CDT
Civil Twilight 7:33 AM CDT 6:46 PM CDT
Nautical Twilight 6:57 AM CDT 7:21 PM CDT
Astronomical Twilight 6:22 AM CDT 7:56 PM CDT
Moon 10:56 AM CDT (10/30) 8:15 PM CDT (10/30)
Length of Visible Light 11h 13m
Length of Day
10h 10m
Waxing Crescent, 9% of the Moon is Illuminated
Oct 30
Waxing Crescent
Nov 4
First Quarter
Nov 12
Full
Nov 19
Last Quarter
Nov 26
New

Hourly Weather History & Observations

Time (CDT) Temp. Windchill Dew Point Humidity Pressure Visibility Wind Dir Wind Speed Gust Speed Precip Events Conditions
12:15 AM 28.4 °F 19.1 °F 12.2 °F 51% 30.32 in 10.0 mi West 10.4 mph - N/A   Unknown
12:35 AM 28.4 °F 19.1 °F 14.0 °F 55% 30.32 in 10.0 mi West 10.4 mph - N/A   Unknown
12:55 AM 28.4 °F 19.1 °F 12.2 °F 51% 30.32 in 10.0 mi West 10.4 mph - N/A   Unknown
1:15 AM 28.4 °F 17.0 °F 12.2 °F 51% 30.32 in 10.0 mi West 15.0 mph - N/A   Unknown
1:35 AM 28.4 °F 19.1 °F 12.2 °F 51% 30.32 in 10.0 mi West 10.4 mph 18.4 mph N/A   Unknown
1:55 AM 28.4 °F 19.1 °F 12.2 °F 51% 30.31 in 10.0 mi West 10.4 mph 16.1 mph N/A   Unknown
2:15 AM 28.4 °F 19.7 °F 14.0 °F 55% 30.32 in 10.0 mi West 9.2 mph - N/A   Unknown
2:35 AM 28.4 °F 20.4 °F 14.0 °F 55% 30.31 in 10.0 mi West 8.1 mph - N/A   Unknown
2:55 AM 28.4 °F 20.4 °F 14.0 °F 55% 30.32 in 10.0 mi WSW 8.1 mph - N/A   Unknown
3:15 AM 28.4 °F 17.0 °F 14.0 °F 55% 30.31 in 10.0 mi West 15.0 mph - N/A   Unknown
3:35 AM 28.4 °F 17.0 °F 14.0 °F 55% 30.31 in 10.0 mi West 15.0 mph - N/A   Unknown
3:55 AM 28.4 °F 18.5 °F 14.0 °F 55% 30.31 in 10.0 mi West 11.5 mph - N/A   Unknown
4:15 AM 28.4 °F 18.0 °F 14.0 °F 55% 30.31 in 10.0 mi West 12.7 mph - N/A   Unknown
4:35 AM 28.4 °F 18.0 °F 14.0 °F 55% 30.31 in 10.0 mi West 12.7 mph 18.4 mph N/A   Unknown
4:55 AM 28.4 °F 18.0 °F 14.0 °F 55% 30.31 in 10.0 mi West 12.7 mph - N/A   Unknown
5:15 AM 28.4 °F 18.0 °F 15.8 °F 59% 30.31 in 10.0 mi NW 12.7 mph - N/A   Unknown
5:35 AM 26.6 °F 17.5 °F 19.4 °F 74% 30.31 in 10.0 mi NW 9.2 mph - N/A   Unknown
5:55 AM 26.6 °F 18.2 °F 19.4 °F 74% 30.32 in 10.0 mi NW 8.1 mph - N/A   Unknown
6:15 AM 26.6 °F 17.5 °F 17.6 °F 69% 30.32 in 10.0 mi WNW 9.2 mph - N/A   Unknown
6:35 AM 26.6 °F 19.1 °F 17.6 °F 69% 30.32 in 10.0 mi WNW 6.9 mph - N/A   Unknown
6:55 AM 23.0 °F 14.7 °F 17.6 °F 80% 30.31 in 10.0 mi WNW 6.9 mph - N/A   Unknown
7:15 AM 23.0 °F 14.7 °F 17.6 °F 80% 30.31 in 10.0 mi West 6.9 mph - N/A   Unknown
7:35 AM 21.2 °F 11.7 °F 17.6 °F 86% 30.32 in 10.0 mi West 8.1 mph - N/A   Unknown
7:55 AM 21.2 °F 12.6 °F 15.8 °F 80% 30.31 in 10.0 mi West 6.9 mph - N/A   Unknown
8:15 AM 21.2 °F 13.6 °F 15.8 °F 80% 30.33 in 10.0 mi WSW 5.8 mph - N/A   Unknown
8:35 AM 21.2 °F 12.6 °F 17.6 °F 86% 30.33 in 10.0 mi WSW 6.9 mph - N/A   Unknown
8:55 AM 21.2 °F 13.6 °F 17.6 °F 86% 30.33 in 10.0 mi WSW 5.8 mph - N/A   Unknown
9:15 AM 23.0 °F 13.9 °F 17.6 °F 80% 30.33 in 10.0 mi West 8.1 mph - N/A   Unknown
9:35 AM 24.8 °F 14.6 °F 17.6 °F 74% 30.32 in 10.0 mi West 10.4 mph - N/A   Unknown
9:55 AM 26.6 °F 15.7 °F 17.6 °F 69% 30.32 in 10.0 mi West 12.7 mph - N/A   Unknown
10:15 AM 26.6 °F 14.7 °F 17.6 °F 69% 30.32 in 10.0 mi WNW 15.0 mph - N/A   Unknown
10:35 AM 26.6 °F 15.2 °F 15.8 °F 64% 30.32 in 10.0 mi WNW 13.8 mph - N/A   Unknown
10:55 AM 28.4 °F 18.0 °F 15.8 °F 59% 30.32 in 10.0 mi WNW 12.7 mph - N/A   Unknown
11:15 AM 28.4 °F 19.1 °F 15.8 °F 59% 30.32 in 10.0 mi WNW 10.4 mph - N/A   Unknown
11:35 AM 28.4 °F 17.5 °F 14.0 °F 55% 30.32 in 10.0 mi WNW 13.8 mph - N/A   Unknown
11:55 AM 28.4 °F 18.0 °F 14.0 °F 55% 30.32 in 10.0 mi WNW 12.7 mph 16.1 mph N/A   Unknown
12:15 PM 30.2 °F 21.3 °F 14.0 °F 51% 30.31 in 10.0 mi WNW 10.4 mph 16.1 mph N/A   Unknown
12:35 PM 28.4 °F 18.0 °F 14.0 °F 55% 30.31 in 10.0 mi WNW 12.7 mph - N/A   Unknown
12:55 PM 28.4 °F 19.1 °F 14.0 °F 55% 30.31 in 10.0 mi WNW 10.4 mph - N/A   Unknown
1:15 PM 30.2 °F 21.3 °F 14.0 °F 51% 30.30 in 10.0 mi West 10.4 mph 19.6 mph N/A   Unknown
1:35 PM 28.4 °F 19.1 °F 14.0 °F 55% 30.30 in 10.0 mi WNW 10.4 mph 17.3 mph N/A   Unknown
1:55 PM 28.4 °F 20.4 °F 14.0 °F 55% 30.29 in 10.0 mi WNW 8.1 mph - N/A   Unknown
2:15 PM 28.4 °F 18.5 °F 14.0 °F 55% 30.28 in 10.0 mi WNW 11.5 mph - N/A   Unknown
2:35 PM 28.4 °F 18.5 °F 14.0 °F 55% 30.28 in 10.0 mi WNW 11.5 mph - N/A   Unknown
2:55 PM 28.4 °F 18.5 °F 14.0 °F 55% 30.27 in 10.0 mi WNW 11.5 mph - N/A   Unknown
3:15 PM 28.4 °F 18.5 °F 14.0 °F 55% 30.27 in 10.0 mi West 11.5 mph - N/A   Unknown
3:35 PM 28.4 °F 20.4 °F 14.0 °F 55% 30.27 in 10.0 mi West 8.1 mph - N/A   Unknown
4:15 PM 28.4 °F 18.5 °F 15.8 °F 59% 30.26 in 10.0 mi WNW 11.5 mph - N/A   Unknown
4:35 PM 28.4 °F 19.7 °F 15.8 °F 59% 30.26 in 10.0 mi WNW 9.2 mph - N/A   Unknown
4:55 PM 28.4 °F 19.7 °F 15.8 °F 59% 30.26 in 10.0 mi WNW 9.2 mph - N/A   Unknown
5:15 PM 28.4 °F 19.7 °F 15.8 °F 59% 30.26 in 10.0 mi WNW 9.2 mph - N/A   Unknown
5:35 PM 28.4 °F 20.4 °F 15.8 °F 59% 30.26 in 10.0 mi NW 8.1 mph - N/A   Unknown
5:55 PM 28.4 °F 19.7 °F 15.8 °F 59% 30.26 in 10.0 mi WNW 9.2 mph - N/A   Unknown
6:15 PM 28.4 °F 20.4 °F 15.8 °F 59% 30.25 in 10.0 mi WNW 8.1 mph - N/A   Unknown
6:35 PM 28.4 °F 21.2 °F 15.8 °F 59% 30.25 in 10.0 mi WNW 6.9 mph - N/A   Unknown
6:55 PM 28.4 °F 23.3 °F 17.6 °F 64% 30.26 in 10.0 mi NW 4.6 mph - N/A   Unknown
7:15 PM 28.4 °F 22.2 °F 17.6 °F 64% 30.25 in 10.0 mi WNW 5.8 mph - N/A   Unknown
7:35 PM 28.4 °F 23.3 °F 17.6 °F 64% 30.25 in 10.0 mi NW 4.6 mph - N/A   Unknown
7:55 PM 28.4 °F 23.3 °F 17.6 °F 64% 30.24 in 10.0 mi NW 4.6 mph - N/A   Unknown
8:15 PM 28.4 °F 24.6 °F 17.6 °F 64% 30.24 in 10.0 mi NW 3.5 mph - N/A   Unknown
8:55 PM 28.4 °F 24.6 °F 17.6 °F 64% 30.23 in 10.0 mi NW 3.5 mph - N/A   Unknown
9:15 PM 28.4 °F 20.4 °F 17.6 °F 64% 30.23 in 10.0 mi NW 8.1 mph - N/A   Unknown
9:35 PM 28.4 °F 19.7 °F 15.8 °F 59% 30.23 in 10.0 mi NW 9.2 mph - N/A   Unknown
9:55 PM 28.4 °F 20.4 °F 15.8 °F 59% 30.23 in 10.0 mi NW 8.1 mph - N/A   Unknown
10:15 PM 26.6 °F 16.8 °F 15.8 °F 64% 30.23 in 10.0 mi NNW 10.4 mph - N/A   Unknown
10:35 PM 26.6 °F 21.2 °F 15.8 °F 64% 30.22 in 10.0 mi NNW 4.6 mph - N/A   Unknown
10:55 PM 23.0 °F 17.0 °F 14.0 °F 68% 30.22 in 10.0 mi NNW 4.6 mph - N/A   Unknown
11:15 PM 23.0 °F 17.0 °F 14.0 °F 68% 30.21 in 10.0 mi NNW 4.6 mph - N/A   Unknown
11:35 PM 23.0 °F 18.4 °F 14.0 °F 68% 30.21 in 10.0 mi NW 3.5 mph - N/A   Unknown
11:55 PM 21.2 °F 16.4 °F 14.0 °F 74% 30.20 in 10.0 mi WNW 3.5 mph - N/A   Unknown